Weather reports worldwide

Advertisment
F3, Netherlands (6239): temperature & dewpoint: 09.08.2020 21:00:00 - 15.08.2020 21:00:00 (CEST)F3, Netherlands (6239): reduced air pressure: 09.08.2020 21:00:00 - 15.08.2020 21:00:00 (CEST)F3, Netherlands (6239): visibility: 09.08.2020 21:00:00 - 15.08.2020 21:00:00 (CEST)
Date & Time tt [°C] td [°C] ppp [hPa] vv [km]
15.08.2020 21:00:00 16,6 14,3 1016,4 42
15.08.2020 20:00:00 16,9 14,3 1016,5 40
15.08.2020 19:00:00 17,4 14,5 1016,5 46
15.08.2020 18:00:00 18,0 14,6 1016,9 44
15.08.2020 17:00:00 17,6 14,3 1017,1 41
15.08.2020 16:00:00 17,3 14,4 1017,4 36
15.08.2020 15:00:00 16,8 14,1 1017,5 43
15.08.2020 14:00:00 16,9 14,7 1017,7 34
15.08.2020 13:00:00 16,9 14,0 1017,4 31
15.08.2020 12:00:00 17,0 14,3 1017,4 30
15.08.2020 11:00:00 16,7 13,9 1017,3 41
15.08.2020 10:00:00 16,5 14,0 1017,2 42
15.08.2020 09:00:00 16,6 14,0 1017,0 39
15.08.2020 08:00:00 16,7 14,3 1016,6 42
15.08.2020 07:00:00 16,7 13,9 1016,4 46
15.08.2020 06:00:00 17,0 14,5 1016,2 40
15.08.2020 05:00:00 17,3 14,6 1016,2 30
15.08.2020 04:00:00 17,6 15,1 1016,3 23
15.08.2020 03:00:00 17,6 15,4 1016,3 20
15.08.2020 02:00:00 17,5 15,7 1016,3 16
15.08.2020 01:00:00 17,5 16,0 1016,3 14
15.08.2020 00:00:00 17,5 15,9 1016,0 13
14.08.2020 23:00:00 17,5 16,0 1015,9 13
14.08.2020 22:00:00 17,9 16,4 1015,9 15
14.08.2020 21:00:00 18,4 16,5 1015,4 19
14.08.2020 20:00:00 19,5 16,7 1015,0 26
14.08.2020 19:00:00 19,9 17,3 1014,7 18
14.08.2020 18:00:00 20,0 17,5 1014,5 22
14.08.2020 17:00:00 20,2 17,6 1014,6 44
14.08.2020 16:00:00 20,0 17,0 1014,5 41
14.08.2020 15:00:00 19,9 16,4 1014,3 47
14.08.2020 14:00:00 20,0 16,1 1014,4 47
14.08.2020 13:00:00 19,9 16,1 1014,5 47
14.08.2020 12:00:00 20,0 16,3 1014,6 47
14.08.2020 11:00:00 20,0 16,0 1014,4 41
14.08.2020 10:00:00 19,7 16,5 1014,3 48
14.08.2020 09:00:00 19,7 16,8 1013,6 49
14.08.2020 08:00:00 19,9 17,0 1013,7 50
14.08.2020 07:00:00 20,0 16,4 1013,6 50
14.08.2020 06:00:00 19,8 16,4 1013,4 49
14.08.2020 05:00:00 19,8 16,7 1013,4 48
14.08.2020 04:00:00 20,0 16,8 1013,6 50
14.08.2020 03:00:00 20,4 16,8 1014,0 50
14.08.2020 02:00:00 20,7 16,0 1014,0 50
14.08.2020 01:00:00 20,9 16,3 1014,5 49
14.08.2020 00:00:00 21,0 16,0 1014,2 50
13.08.2020 23:00:00 21,1 16,3 1014,0 47
13.08.2020 22:00:00 21,1 16,6 1013,9 47
13.08.2020 21:00:00 21,6 17,3 1013,9 48
13.08.2020 20:00:00 22,1 18,0 1013,6 45
13.08.2020 19:00:00 22,9 18,0 1013,4 41
13.08.2020 18:00:00 23,0 17,9 1013,7 41
13.08.2020 17:00:00 21,2 17,8 1014,1 36
13.08.2020 16:00:00 20,5 17,8 1014,2 38
13.08.2020 15:00:00 20,0 17,8 1014,4 30
13.08.2020 14:00:00 20,1 17,6 1014,4 31
13.08.2020 13:00:00 20,0 17,5 1014,2 28
13.08.2020 12:00:00 20,1 17,6 1014,2 29
13.08.2020 11:00:00 20,2 17,3 1014,1 29
13.08.2020 10:00:00 20,4 17,0 1014,0 36
13.08.2020 09:00:00 20,5 17,0 1014,0 40
13.08.2020 08:00:00 20,5 16,9 1013,8 35
13.08.2020 07:00:00 20,2 17,1 1013,6 37
13.08.2020 06:00:00 20,2 17,0 1013,4 33
13.08.2020 05:00:00 20,4 17,0 1013,5 35
13.08.2020 04:00:00 20,4 17,2 1013,6 33
13.08.2020 03:00:00 20,5 17,5 1014,1 35
13.08.2020 02:00:00 20,6 17,9 1014,6 31
13.08.2020 01:00:00 20,7 18,0 1015,2 24
13.08.2020 00:00:00 20,9 18,0 1015,3 29
12.08.2020 23:00:00 21,0 17,9 1015,3 30
12.08.2020 22:00:00 21,2 18,1 1015,0 33
12.08.2020 21:00:00 21,8 18,0 1014,7 36
12.08.2020 20:00:00 23,2 18,0 1014,9 34
12.08.2020 19:00:00 23,4 18,2 1015,1 23
12.08.2020 18:00:00 22,2 18,1 1015,9 19
12.08.2020 17:00:00 21,2 18,0 1016,0 19
12.08.2020 16:00:00 20,5 17,8 1016,1 19
12.08.2020 15:00:00 20,1 17,5 1016,7 20
12.08.2020 14:00:00 20,1 17,4 1016,8 19
12.08.2020 13:00:00 20,2 17,5 1016,8 20
12.08.2020 12:00:00 20,2 17,4 1017,0 19
12.08.2020 11:00:00 20,0 17,4 1016,9 20
12.08.2020 10:00:00 20,2 17,4 1016,3 19
12.08.2020 09:00:00 20,4 17,4 1015,9 24
12.08.2020 08:00:00 20,1 17,5 1016,1 21
12.08.2020 07:00:00 19,9 17,4 1016,1 21
12.08.2020 06:00:00 19,8 17,3 1016,0 21
12.08.2020 05:00:00 20,0 17,4 1016,2 20
12.08.2020 04:00:00 20,1 17,4 1016,2 22
12.08.2020 03:00:00 20,3 17,4 1016,2 22
12.08.2020 02:00:00 20,5 17,6 1016,9 22
12.08.2020 01:00:00 20,6 17,9 1017,5 22
12.08.2020 00:00:00 20,6 18,2 1017,9 20
11.08.2020 23:00:00 20,5 18,1 1017,6 18
11.08.2020 22:00:00 20,5 18,0 1017,4 18
11.08.2020 21:00:00 20,6 18,1 1017,4 18
11.08.2020 20:00:00 21,3 18,2 1017,1 16
11.08.2020 19:00:00 21,5 18,4 1017,4 19
11.08.2020 18:00:00 21,6 18,4 1017,9 17
11.08.2020 17:00:00 20,9 18,3 1018,4 15
11.08.2020 16:00:00 20,0 18,3 1018,9 11
11.08.2020 15:00:00 19,4 18,0 1019,0 9
11.08.2020 14:00:00 19,4 18,1 1019,3 8
11.08.2020 13:00:00 19,4 18,1 1019,5 8
11.08.2020 12:00:00 19,4 18,0 1019,5 7
11.08.2020 11:00:00 19,4 17,9 1019,4 9
11.08.2020 10:00:00 19,3 17,9 1019,2 10
11.08.2020 09:00:00 19,2 18,0 1019,0 9
11.08.2020 08:00:00 19,0 17,8 1018,8 8
11.08.2020 07:00:00 19,2 18,0 1018,8 10
11.08.2020 06:00:00 19,1 17,7 1018,5 12
11.08.2020 05:00:00 19,5 17,6 1018,5 17
11.08.2020 04:00:00 19,4 17,5 1018,7 19
11.08.2020 03:00:00 19,4 17,2 1018,2 21
11.08.2020 02:00:00 19,6 16,9 1018,4 27
11.08.2020 01:00:00 19,5 16,6 1018,8 22
11.08.2020 00:00:00 19,5 16,4 1018,6 27
10.08.2020 23:00:00 19,4 16,3 1018,6 30
10.08.2020 22:00:00 19,2 16,1 1018,5 34
10.08.2020 21:00:00 19,5 15,4 1018,0 40
10.08.2020 20:00:00 20,3 15,7 1018,1 31
10.08.2020 19:00:00 20,6 15,5 1017,9 34
10.08.2020 18:00:00 20,3 15,7 1018,2 29
10.08.2020 17:00:00 19,7 15,9 1018,4 29
10.08.2020 16:00:00 19,1 16,1 1018,6 21
10.08.2020 15:00:00 18,6 16,2 1018,8 18
10.08.2020 14:00:00 18,5 16,3 1019,1 22
10.08.2020 13:00:00 18,5 16,0 1019,2 20
10.08.2020 12:00:00 18,6 16,0 1019,1 21
10.08.2020 11:00:00 18,6 15,9 1019,2 23
10.08.2020 10:00:00 18,3 15,9 1018,8 21
10.08.2020 09:00:00 18,1 15,3 1018,7 22
10.08.2020 08:00:00 17,9 14,9 1018,8 26
10.08.2020 07:00:00 17,8 14,3 1018,9 28
10.08.2020 06:00:00 17,7 13,6 1019,0 31
10.08.2020 05:00:00 17,5 13,8 1019,2 29
10.08.2020 04:00:00 17,4 14,0 1019,6 23
10.08.2020 03:00:00 17,2 14,0 1019,6 22
10.08.2020 02:00:00 17,2 14,2 1019,9 23
10.08.2020 01:00:00 17,2 14,0 1020,1 21
10.08.2020 00:00:00 17,1 13,9 1020,5 21
09.08.2020 23:00:00 17,0 14,3 1020,6 20
09.08.2020 22:00:00 17,1 14,2 1020,9 21
09.08.2020 21:00:00 17,4 14,0 1020,4 20

tt = temperature
td = dewpoint
ppp = reduced air pressure
vv = visibility

Next stations